Flag for Canada Weather past 2 weeks in Morden, Manitoba, Canada

Now
55 °F

Cool.


Feels Like: 53 °F
Forecast: 55 / 69 °F
Wind: 7 mph from South

Location: Morden CDA CS

Current Time: May 6, 2015 at 6:35:36 AM

Latest Report: May 6, 2015 at 6:00 AM


Visibility: N/A

Pressure: 29.89 "Hg

Humidity: 83%

Dew point: 50 °F

Location of MordenLocation

Historic Weather in Morden — Graph

°F

Morden temperature yesterday

Maximum temperature yesterday: 77 °F (at 4:00 PM)
Minimum temperature yesterday: 45 °F (at 2:00 AM)
Average temperature yesterday: 63 °F

Past Weeks' High & Low Weather Summary

 TemperatureHumidityPressure
High82 °F (May 2, 1:00 PM)100% (Apr 27, 10:00 PM)30.34 "Hg (Apr 27, 10:00 PM)
Low18 °F (Apr 23, 7:00 AM)13% (May 2, 3:00 PM)29.51 "Hg (May 2, 6:00 PM)
Average52 °F47%29.99 "Hg
* Reported Apr 21 5:00 AM — May 6 5:00 AM, Morden, Weather by CustomWeather, © 2015

Note: Actual official high and low records may vary slightly from our data, if they occured in-between our weather recording intervals... More about our weather records

Advertising

Morden weather history for previous 24 hours

 ConditionsComfort  
Time TempWeatherWind HumidityBarometerVisibility
5:00 AM
Wed, May 6
56 °FCool.8 mph80%29.90 "HgN/A
4:00 AM57 °FCool.8 mph74%29.91 "HgN/A
3:00 AM58 °FCool.7 mph66%29.91 "HgN/A
2:00 AM59 °FRefreshingly cool.8 mph52%29.92 "HgN/A
1:00 AM57 °FRefreshingly cool.7 mph33%29.94 "HgN/A
12:00 AM59 °FRefreshingly cool.7 mph27%29.93 "HgN/A
11:00 PM
Tue, May 5
61 °FRefreshingly cool.5 mph24%29.93 "HgN/A
10:00 PM62 °FMild.6 mph21%29.94 "HgN/A
9:00 PM66 °FMild.7 mph18%29.93 "HgN/A
8:00 PM73 °FMild.8 mph13%29.93 "HgN/A
7:00 PM73 °FMild.10 mph13%29.94 "HgN/A
6:00 PM76 °FMild.16 mph13%29.95 "HgN/A
5:00 PM77 °FMild.15 mph14%29.96 "HgN/A
4:00 PM77 °FMild.13 mph15%29.99 "HgN/A
3:00 PM76 °FMild.17 mph15%30.02 "HgN/A
2:00 PM76 °FMild.17 mph16%30.03 "HgN/A
1:00 PM72 °FMild.15 mph18%30.06 "HgN/A
12:00 PM72 °FMild.14 mph18%30.08 "HgN/A
11:00 AM68 °FMild.17 mph20%30.10 "HgN/A
10:00 AM68 °FMild.16 mph20%30.11 "HgN/A
9:00 AM65 °FMild.16 mph22%30.12 "HgN/A
8:00 AM62 °FRefreshingly cool.12 mph25%30.12 "HgN/A
7:00 AM55 °FRefreshingly cool.7 mph31%30.12 "HgN/A
6:00 AM51 °FCool.3 mph36%30.12 "HgN/A
Weather by CustomWeather, © 2015

See weather overviewHow to use our weather pages